TimeCST,TemperatureF,Dew PointF,Humidity,Sea Level PressureIn,VisibilityMPH,Wind Direction,Wind SpeedMPH,Gust SpeedMPH,PrecipitationIn,Events,Conditions,WindDirDegrees,DateUTC
12:15 AM,71.1,63.9,78,30.02,10.0,SSE,13.8,20.7,N/A,,Overcast,160,2013-03-09 06:15:00
12:35 AM,71.1,64.0,78,30.01,10.0,SSE,12.7,19.6,N/A,,Mostly Cloudy,150,2013-03-09 06:35:00
12:55 AM,71.1,64.4,79,30.00,10.0,SSE,15.0,19.6,N/A,,Scattered Clouds,160,2013-03-09 06:55:00
1:15 AM,70.9,64.2,79,29.98,10.0,SSE,12.7,19.6,N/A,,Clear,150,2013-03-09 07:15:00
1:35 AM,70.9,63.7,78,29.96,10.0,SSE,13.8,19.6,N/A,,Clear,150,2013-03-09 07:35:00
1:55 AM,70.9,63.5,77,29.95,10.0,SSE,15.0,20.7,N/A,,Clear,150,2013-03-09 07:55:00
2:15 AM,70.7,63.5,78,29.95,10.0,SSE,15.0,18.4,N/A,,Clear,160,2013-03-09 08:15:00
2:35 AM,70.7,63.5,78,29.93,10.0,SSE,15.0,-,N/A,,Scattered Clouds,150,2013-03-09 08:35:00
2:55 AM,70.5,63.7,79,29.91,10.0,SSE,15.0,23.0,N/A,,Scattered Clouds,150,2013-03-09 08:55:00
3:15 AM,70.7,63.9,79,29.90,10.0,SSE,13.8,23.0,N/A,,Mostly Cloudy,150,2013-03-09 09:15:00
3:35 AM,70.7,64.0,79,29.91,10.0,SSE,13.8,21.9,N/A,,Mostly Cloudy,160,2013-03-09 09:35:00
3:55 AM,70.7,64.0,79,29.91,10.0,SSE,15.0,20.7,N/A,,Overcast,160,2013-03-09 09:55:00
4:15 AM,70.7,64.4,80,29.90,10.0,SSE,13.8,21.9,N/A,,Mostly Cloudy,160,2013-03-09 10:15:00
4:35 AM,70.9,64.4,80,29.88,10.0,SSE,16.1,21.9,N/A,,Overcast,160,2013-03-09 10:35:00
4:55 AM,70.9,64.4,80,29.88,10.0,SSE,18.4,24.2,N/A,,Overcast,160,2013-03-09 10:55:00
5:15 AM,71.1,64.6,80,29.88,10.0,SSE,17.3,24.2,N/A,,Overcast,160,2013-03-09 11:15:00
5:35 AM,71.2,64.6,79,29.87,10.0,SSE,16.1,21.9,N/A,,Overcast,160,2013-03-09 11:35:00
5:55 AM,71.6,64.6,78,29.87,10.0,SSE,18.4,26.5,N/A,,Overcast,160,2013-03-09 11:55:00
6:15 AM,71.6,64.6,78,29.87,10.0,SSE,17.3,24.2,N/A,,Overcast,160,2013-03-09 12:15:00
6:35 AM,71.6,64.4,78,29.88,10.0,SSE,17.3,25.3,N/A,,Overcast,160,2013-03-09 12:35:00
6:55 AM,71.8,64.6,78,29.88,10.0,SSE,19.6,27.6,N/A,,Overcast,160,2013-03-09 12:55:00
7:15 AM,71.6,64.6,78,29.87,10.0,SSE,20.7,28.8,N/A,,Mostly Cloudy,160,2013-03-09 13:15:00
7:35 AM,71.8,64.4,77,29.88,10.0,SSE,18.4,28.8,N/A,,Scattered Clouds,160,2013-03-09 13:35:00
7:55 AM,72.0,64.4,77,29.89,10.0,SSE,18.4,25.3,N/A,,Overcast,160,2013-03-09 13:55:00
8:15 AM,72.5,64.4,76,29.90,10.0,South,19.6,25.3,N/A,,Overcast,170,2013-03-09 14:15:00
8:35 AM,72.9,64.4,75,29.90,10.0,SSE,17.3,25.3,N/A,,Overcast,160,2013-03-09 14:35:00
8:55 AM,73.6,64.6,73,29.91,10.0,South,18.4,24.2,N/A,,Overcast,170,2013-03-09 14:55:00
9:15 AM,74.5,64.6,71,29.90,10.0,SSE,18.4,26.5,N/A,,Overcast,160,2013-03-09 15:15:00
9:35 AM,75.2,64.4,69,29.90,10.0,South,21.9,29.9,N/A,,Overcast,170,2013-03-09 15:35:00
9:55 AM,75.6,64.4,68,29.90,10.0,SSE,19.6,28.8,N/A,,Overcast,160,2013-03-09 15:55:00
10:15 AM,76.1,64.4,67,29.90,10.0,South,18.4,33.4,N/A,,Overcast,170,2013-03-09 16:15:00
10:35 AM,77.5,64.2,63,29.89,10.0,South,23.0,31.1,N/A,,Overcast,170,2013-03-09 16:35:00
10:55 AM,78.8,64.6,62,29.88,7.0,SSE,21.9,32.2,N/A,,Overcast,160,2013-03-09 16:55:00
11:15 AM,78.8,64.4,61,29.87,7.0,SSE,24.2,32.2,N/A,,Overcast,160,2013-03-09 17:15:00
11:35 AM,79.0,63.5,59,29.86,7.0,South,20.7,29.9,N/A,,Overcast,170,2013-03-09 17:35:00
11:55 AM,80.2,63.5,57,29.85,7.0,SSE,17.3,32.2,N/A,,Overcast,160,2013-03-09 17:55:00
12:15 PM,82.0,62.6,52,29.84,7.0,SSE,21.9,34.5,N/A,,Overcast,160,2013-03-09 18:15:00
12:35 PM,82.0,62.4,51,29.83,7.0,SSE,23.0,34.5,N/A,,Overcast,160,2013-03-09 18:35:00
12:55 PM,81.7,62.6,52,29.81,7.0,South,21.9,31.1,N/A,,Overcast,170,2013-03-09 18:55:00
1:15 PM,82.9,62.4,50,29.79,5.0,SSE,23.0,36.8,N/A,,Haze,160,2013-03-09 19:15:00
1:35 PM,82.6,62.6,51,29.78,5.0,SSE,24.2,33.4,N/A,,Haze,160,2013-03-09 19:35:00
1:55 PM,83.3,62.1,49,29.76,5.0,SSE,21.9,38.0,N/A,,Haze,150,2013-03-09 19:55:00
2:15 PM,81.0,61.7,52,29.75,7.0,SSE,21.9,36.8,N/A,,Overcast,160,2013-03-09 20:15:00
2:35 PM,84.0,62.1,47,29.74,7.0,SSE,25.3,34.5,N/A,,Mostly Cloudy,160,2013-03-09 20:35:00
2:55 PM,84.6,61.9,46,29.74,7.0,South,26.5,35.7,N/A,,Mostly Cloudy,170,2013-03-09 20:55:00
3:15 PM,82.6,61.7,49,29.73,7.0,SSE,24.2,33.4,N/A,,Scattered Clouds,160,2013-03-09 21:15:00
3:35 PM,82.4,61.7,49,29.72,7.0,SSE,28.8,34.5,N/A,,Scattered Clouds,160,2013-03-09 21:35:00
3:55 PM,82.6,61.7,49,29.71,7.0,SSE,25.3,35.7,N/A,,Scattered Clouds,160,2013-03-09 21:55:00
4:15 PM,81.7,61.5,50,29.70,7.0,SSE,27.6,36.8,N/A,,Clear,160,2013-03-09 22:15:00
4:35 PM,81.5,62.2,52,29.70,7.0,SSE,18.4,34.5,N/A,,Clear,150,2013-03-09 22:35:00
4:55 PM,79.7,62.6,56,29.70,7.0,SSE,27.6,38.0,N/A,,Clear,150,2013-03-09 22:55:00
5:15 PM,79.3,62.8,57,29.69,7.0,SSE,26.5,34.5,N/A,,Clear,160,2013-03-09 23:15:00
5:35 PM,78.1,62.8,59,29.69,7.0,SSE,25.3,34.5,N/A,,Clear,150,2013-03-09 23:35:00
5:55 PM,77.0,62.8,61,29.69,7.0,SSE,20.7,35.7,N/A,,Clear,150,2013-03-09 23:55:00
6:15 PM,75.6,63.1,65,29.69,7.0,SSE,24.2,33.4,N/A,,Scattered Clouds,160,2013-03-10 00:15:00
6:35 PM,74.7,62.8,66,29.68,10.0,SSE,24.2,33.4,N/A,,Clear,160,2013-03-10 00:35:00
6:55 PM,73.8,63.0,69,29.69,10.0,SSE,24.2,33.4,N/A,,Clear,160,2013-03-10 00:55:00
7:15 PM,73.2,63.5,71,29.70,10.0,SSE,18.4,32.2,N/A,,Mostly Cloudy,160,2013-03-10 01:15:00
7:35 PM,72.9,63.5,72,29.70,10.0,SSE,21.9,29.9,N/A,,Mostly Cloudy,160,2013-03-10 01:35:00
7:55 PM,72.5,62.8,71,29.71,10.0,SSE,18.4,28.8,N/A,,Scattered Clouds,160,2013-03-10 01:55:00
8:15 PM,72.0,63.0,73,29.71,10.0,SSE,23.0,36.8,N/A,,Clear,160,2013-03-10 02:15:00
8:35 PM,71.8,63.7,76,29.71,10.0,SSE,23.0,32.2,N/A,,Clear,160,2013-03-10 02:35:00
8:55 PM,71.6,63.9,76,29.71,10.0,SSE,21.9,35.7,N/A,,Scattered Clouds,160,2013-03-10 02:55:00
9:15 PM,71.6,64.0,77,29.71,10.0,SSE,23.0,31.1,N/A,,Scattered Clouds,160,2013-03-10 03:15:00
9:35 PM,71.6,64.4,78,29.71,10.0,SSE,26.5,33.4,N/A,,Scattered Clouds,160,2013-03-10 03:35:00
9:55 PM,71.8,64.4,77,29.72,10.0,SSE,20.7,26.5,N/A,,Mostly Cloudy,160,2013-03-10 03:55:00
10:15 PM,72.0,64.6,77,29.72,10.0,SSE,19.6,25.3,N/A,,Overcast,160,2013-03-10 04:15:00
10:35 PM,72.1,64.8,78,29.71,10.0,SSE,26.5,33.4,N/A,,Mostly Cloudy,160,2013-03-10 04:35:00
10:55 PM,72.1,64.8,78,29.70,10.0,SSE,24.2,33.4,N/A,,Mostly Cloudy,160,2013-03-10 04:55:00
11:15 PM,72.5,65.3,78,29.69,10.0,SSE,21.9,31.1,N/A,,Mostly Cloudy,160,2013-03-10 05:15:00
11:35 PM,72.5,65.3,78,29.68,10.0,South,25.3,31.1,N/A,,Overcast,170,2013-03-10 05:35:00
11:55 PM,72.5,65.3,78,29.67,10.0,South,23.0,34.5,N/A,,Overcast,170,2013-03-10 05:55:00